Hourly Data Report for May 18, 2012

All times are specified in Local Standard Time (LST). Add 1 hour to adjust for Daylight Saving Time where and when it is observed.

GANDER INTL A
NEWFOUNDLAND

48°56'13.000" N
54°34'05.000" W
151.20 m
8401703
71803
YQX

Download Data

Hourly Data (May 2012)
Hourly Data Report for May 18, 2012
Temp Definition
°C
Dew Point Temp Definition
°C
Rel Hum Definition
%
Wind Dir Definition
10's deg

Wind Spd Definition
km/h
Visibility Definition
km
Stn Press Definition
kPa
Hmdx Definition


Wind Chill Definition


Weather Definition


TIME
00:30 Legend Double Dagger 11.7 10.9 95 20 22 10.0 99.20     Rain
01:30 Legend Double Dagger 11.3 10.4 94 21 25 10.0 99.16     Rain
02:30 Legend Double Dagger 11.3 10.5 95 21 24 10.0 99.15     Cloudy
03:30 Legend Double Dagger 11.1 10.3 95 20 18 10.0 99.19     LegendNANA
04:30 Legend Double Dagger 10.7 9.9 95 22 17 10.0 99.19     LegendNANA
05:30 Legend Double Dagger 10.1 9.5 96 25 15 10.0 99.26     Cloudy
06:30 Legend Double Dagger 10.6 9.8 95 27 13 10.0 99.32     LegendNANA
07:30 Legend Double Dagger 9.9 7.0 82 26 16 10.0 99.37     LegendNANA
08:30 Legend Double Dagger 10.9 5.3 68 27 18 10.0 99.40     Mainly Clear
09:30 Legend Double Dagger 12.2 5.0 61 26 26 10.0 99.36     LegendNANA
10:30 Legend Double Dagger 12.8 3.5 53 27 30 10.0 99.36     LegendNANA
11:30 Legend Double Dagger 13.8 3.9 51 26 26 10.0 99.33     Mainly Clear
12:30 Legend Double Dagger 13.6 3.7 51 25 24 10.0 99.27     LegendNANA
13:30 Legend Double Dagger 15.1 4.0 47 23 26 10.0 99.20     LegendNANA
14:30 Legend Double Dagger 15.2 2.5 42 26 33 10.0 99.17     Mainly Clear
15:30 Legend Double Dagger 15.2 2.1 41 27 28 10.0 99.14     LegendNANA
16:30 Legend Double Dagger 14.9 1.5 40 26 32 10.0 99.16     LegendNANA
17:30 Legend Double Dagger 13.8 0.9 41 27 34 10.0 99.20     Mainly Clear
18:30 Legend Double Dagger 11.9 -0.6 42 27 28 10.0 99.27     LegendNANA
19:30 Legend Double Dagger 9.1 -0.8 50 27 24 10.0 99.35     LegendNANA
20:30 Legend Double Dagger 7.8 -0.9 54 25 18 10.0 99.40     Mainly Clear
21:30 Legend Double Dagger 7.5 -1.2 54 25 24 10.0 99.42     LegendNANA
22:30 Legend Double Dagger 6.6 -0.6 60 27 21 10.0 99.47     LegendNANA
23:30 Legend Double Dagger 6.1 -0.6 62 26 13 10.0 99.46     Mainly Clear

Notes on Data Quality.

Legend

  • E = Estimated
  • M = Missing
  • NA = Not Available
  • ‡ = Partner data that is not subject to review by the National Climate Archives
Date modified: